CES126 ZGGG-ZBAD

Flight info

Callsign CES126
Flight time N/A
Altitude 37100
Route MIKIP9 MIKIP A461 BUBDA/K0874S1160 W56 REBIS/K0870S1190 W56 ORODO/K0880S1160 W62 KARVU/K0878S1190 W62 IGDID/K0880S1160 W62 TEKIL G212 BELAX BELAX5L
Aircraft A346/H-SDE2E3FGHIJ3J4J5M1RWXY/LB1D1

Departure

Time 2026-04-29 09:09
Airport Guangzhou Baiyun International Airport (ZGGG)

Arrival

Time N/A
Airport Beijing Daxing International Airport (ZBAD)
Time Latitude Longitude Altitude Speed Heading
2026-04-29 08:46 23.40187 113.30165 67 ft 0 kts 194°
2026-04-29 08:56 23.40192 113.30166 59 ft 4 kts 194°
2026-04-29 08:56 23.40218 113.30173 57 ft 2 kts 194°
2026-04-29 08:57 23.40239 113.30176 57 ft 4 kts 175°
2026-04-29 08:57 23.40255 113.30171 59 ft 4 kts 136°
2026-04-29 08:57 23.40264 113.30153 57 ft 4 kts 102°
2026-04-29 08:57 23.40269 113.30126 57 ft 2 kts 103°
2026-04-29 08:58 23.40269 113.30125 57 ft 0 kts 104°
2026-04-29 09:00 23.40269 113.30126 67 ft 1 kts 104°
2026-04-29 09:00 23.40263 113.30153 58 ft 6 kts 104°
2026-04-29 09:01 23.40247 113.30221 64 ft 12 kts 104°
2026-04-29 09:01 23.40235 113.30322 67 ft 14 kts 78°
2026-04-29 09:01 23.40301 113.30416 57 ft 17 kts 46°
2026-04-29 09:01 23.40355 113.30533 61 ft 19 kts 102°
2026-04-29 09:02 23.40323 113.30674 62 ft 19 kts 104°
2026-04-29 09:02 23.40290 113.30814 60 ft 15 kts 106°
2026-04-29 09:02 23.40226 113.30845 59 ft 12 kts 189°
2026-04-29 09:02 23.40137 113.30825 62 ft 14 kts 194°
2026-04-29 09:03 23.40032 113.30797 59 ft 17 kts 194°
2026-04-29 09:03 23.39900 113.30761 64 ft 22 kts 194°
2026-04-29 09:03 23.39742 113.30719 62 ft 24 kts 194°
2026-04-29 09:03 23.39575 113.30673 59 ft 24 kts 194°
2026-04-29 09:04 23.39407 113.30628 59 ft 26 kts 194°
2026-04-29 09:04 23.39227 113.30580 61 ft 27 kts 194°
2026-04-29 09:04 23.39037 113.30528 59 ft 29 kts 194°
2026-04-29 09:04 23.38852 113.30478 61 ft 26 kts 194°
2026-04-29 09:05 23.38671 113.30429 57 ft 27 kts 194°
2026-04-29 09:05 23.38490 113.30380 61 ft 25 kts 194°
2026-04-29 09:05 23.38319 113.30334 61 ft 23 kts 194°
2026-04-29 09:05 23.38158 113.30291 59 ft 22 kts 194°
2026-04-29 09:06 23.38001 113.30249 62 ft 24 kts 194°
2026-04-29 09:06 23.37869 113.30213 59 ft 15 kts 194°
2026-04-29 09:06 23.37760 113.30190 59 ft 17 kts 168°
2026-04-29 09:06 23.37671 113.30242 63 ft 15 kts 150°
2026-04-29 09:07 23.37631 113.30326 63 ft 14 kts 104°
2026-04-29 09:07 23.37607 113.30425 66 ft 9 kts 104°
2026-04-29 09:07 23.37590 113.30500 59 ft 11 kts 101°
2026-04-29 09:07 23.37633 113.30549 67 ft 7 kts
2026-04-29 09:08 23.37691 113.30566 60 ft 15 kts 15°
2026-04-29 09:08 23.38018 113.30654 61 ft 81 kts 14°
2026-04-29 09:08 23.38765 113.30856 65 ft 137 kts 14°
2026-04-29 09:08 23.39851 113.31143 105 ft 180 kts 12°
2026-04-29 09:09 23.41102 113.31467 660 ft 185 kts 12°
2026-04-29 09:09 23.42311 113.31809 1511 ft 177 kts 16°
2026-04-29 09:09 23.43472 113.32146 2362 ft 171 kts 17°
2026-04-29 09:09 23.44619 113.32505 2994 ft 172 kts 16°
2026-04-29 09:10 23.45793 113.32865 3517 ft 180 kts 15°
2026-04-29 09:10 23.47054 113.33253 3919 ft 197 kts 15°
2026-04-29 09:10 23.48428 113.33675 4318 ft 213 kts 14°
2026-04-29 09:10 23.49926 113.34129 4679 ft 233 kts 13°
2026-04-29 09:11 23.51526 113.34609 5268 ft 243 kts 13°
2026-04-29 09:11 23.53185 113.35107 5958 ft 250 kts 12°
2026-04-29 09:11 23.54886 113.35615 6646 ft 258 kts 12°
2026-04-29 09:11 23.56660 113.36048 7336 ft 264 kts
2026-04-29 09:12 23.58483 113.36394 8068 ft 268 kts
2026-04-29 09:12 23.60357 113.36741 8840 ft 273 kts
2026-04-29 09:12 23.62247 113.37091 9642 ft 277 kts
2026-04-29 09:12 23.64166 113.37451 10335 ft 284 kts
2026-04-29 09:13 23.66167 113.37829 10779 ft 300 kts
2026-04-29 09:13 23.68258 113.38225 11160 ft 318 kts
2026-04-29 09:13 23.70528 113.38657 11531 ft 336 kts
2026-04-29 09:13 23.72867 113.39103 11886 ft 354 kts
2026-04-29 09:14 23.75356 113.39579 12202 ft 372 kts
2026-04-29 09:14 23.77965 113.40080 12536 ft 390 kts
2026-04-29 09:14 23.80693 113.40603 12973 ft 402 kts
2026-04-29 09:14 23.83465 113.41138 13719 ft 406 kts
2026-04-29 09:15 23.86251 113.41675 14379 ft 409 kts